| time (UTC) | temp F | wind direction | speed MPH | gust MPH | rain 1hr in | rain 24hr in | rain mn in | humidity % | barometer mb |
| 20260507014825 | 78 | 115 | 0.0 | 3.0 | 0.00 | 0.00 | 0.00 | 78 | 1017.3 |
| 20260507014335 | 78 | 127 | 1.0 | 3.0 | 0.00 | 0.00 | 0.00 | 78 | 1017.3 |
| 20260507013829 | 78 | 74 | 1.0 | 3.0 | 0.00 | 0.00 | 0.00 | 78 | 1017.4 |
| 20260507013322 | 78 | 88 | 0.0 | 3.0 | 0.00 | 0.00 | 0.00 | 78 | 1017.3 |
| 20260507012837 | 78 | 120 | 1.0 | 3.0 | 0.00 | 0.00 | 0.00 | 77 | 1017.3 |
| 20260507012331 | 79 | 120 | 0.0 | 2.0 | 0.00 | 0.00 | 0.00 | 77 | 1017.4 |
| 20260507011836 | 79 | 105 | 1.0 | 3.0 | 0.00 | 0.00 | 0.00 | 77 | 1017.4 |
| 20260507011327 | 79 | 99 | 1.0 | 3.0 | 0.00 | 0.00 | 0.00 | 77 | 1017.4 |
| 20260507010346 | 79 | 122 | 0.0 | 3.0 | 0.00 | 0.00 | 0.00 | 77 | 1017.3 |
| 20260507005839 | 79 | 86 | 1.0 | 3.0 | 0.00 | 0.00 | 0.00 | 76 | 1017.3 |
| 20260507005332 | 79 | 136 | 1.0 | 3.0 | 0.00 | 0.00 | 0.00 | 77 | 1017.2 |
| 20260507004838 | 79 | 123 | 1.0 | 4.0 | 0.00 | 0.00 | 0.00 | 76 | 1017.2 |
| 20260507004331 | 79 | 114 | 2.0 | 5.0 | 0.00 | 0.00 | 0.00 | 75 | 1017.2 |
| 20260507003820 | 79 | 134 | 3.0 | 5.0 | 0.00 | 0.00 | 0.00 | 75 | 1017.2 |
| 20260507003342 | 79 | 128 | 0.0 | 3.0 | 0.00 | 0.00 | 0.00 | 75 | 1017.1 |
| 20260507002846 | 80 | 103 | 1.0 | 3.0 | 0.00 | 0.00 | 0.00 | 75 | 1017.1 |
| 20260507002333 | 80 | 115 | 2.0 | 5.0 | 0.00 | 0.00 | 0.00 | 74 | 1017.1 |
| 20260507001847 | 80 | 141 | 2.0 | 5.0 | 0.00 | 0.00 | 0.00 | 74 | 1017.1 |
| 20260507001320 | 80 | 112 | 3.0 | 5.0 | 0.00 | 0.00 | 0.00 | 73 | 1017.1 |
| 20260507000842 | 80 | 120 | 3.0 | 5.0 | 0.00 | 0.00 | 0.00 | 73 | 1017.0 |
| 20260507000336 | 80 | 148 | 3.0 | 5.0 | 0.00 | 0.00 | 0.00 | 73 | 1017.1 |
| 20260506235826 | 80 | 63 | 2.0 | 4.0 | 0.00 | 0.00 | 0.00 | 73 | 1017.1 |
| 20260506235321 | 81 | 114 | 1.0 | 6.0 | 0.00 | 0.00 | 0.00 | 73 | 1017.0 |
| 20260506234836 | 81 | 72 | 2.0 | 7.0 | 0.00 | 0.00 | 0.00 | 72 | 1017.0 |
| 20260506234349 | 81 | 113 | 4.0 | 7.0 | 0.00 | 0.00 | 0.00 | 71 | 1016.9 |
| 20260506233823 | 81 | 130 | 2.0 | 7.0 | 0.00 | 0.00 | 0.00 | 70 | 1017.0 |
| 20260506233333 | 81 | 153 | 3.0 | 8.0 | 0.00 | 0.00 | 0.00 | 71 | 1017.0 |
| 20260506232827 | 81 | 101 | 3.0 | 7.0 | 0.00 | 0.00 | 0.00 | 70 | 1017.0 |
| 20260506232340 | 82 | 72 | 4.0 | 7.0 | 0.00 | 0.00 | 0.00 | 69 | 1017.0 |
| 20260506231844 | 82 | 56 | 4.0 | 7.0 | 0.00 | 0.00 | 0.00 | 68 | 1017.1 |
| 20260506231337 | 82 | 91 | 3.0 | 6.0 | 0.00 | 0.00 | 0.00 | 68 | 1017.1 |
| 20260506230826 | 82 | 69 | 3.0 | 6.0 | 0.00 | 0.00 | 0.00 | 68 | 1017.1 |
| 20260506230320 | 83 | 120 | 3.0 | 7.0 | 0.00 | 0.00 | 0.00 | 67 | 1017.2 |
| 20260506225834 | 83 | 123 | 3.0 | 8.0 | 0.00 | 0.00 | 0.00 | 67 | 1017.1 |
| 20260506225330 | 83 | 88 | 3.0 | 7.0 | 0.00 | 0.00 | 0.00 | 66 | 1017.1 |
| 20260506224843 | 84 | 130 | 4.0 | 9.0 | 0.00 | 0.00 | 0.00 | 65 | 1017.0 |
| 20260506224352 | 84 | 86 | 4.0 | 9.0 | 0.00 | 0.00 | 0.00 | 64 | 1017.0 |
| 20260506223825 | 84 | 122 | 4.0 | 8.0 | 0.00 | 0.00 | 0.00 | 64 | 1016.9 |
| 20260506223347 | 84 | 89 | 4.0 | 9.0 | 0.00 | 0.00 | 0.00 | 63 | 1016.8 |
| 20260506222832 | 84 | 39 | 4.0 | 9.0 | 0.00 | 0.00 | 0.00 | 62 | 1016.8 |
| 20260506222344 | 85 | 74 | 4.0 | 9.0 | 0.00 | 0.00 | 0.00 | 59 | 1016.7 |
| 20260506221832 | 85 | 51 | 4.0 | 9.0 | 0.00 | 0.00 | 0.00 | 61 | 1016.7 |
| 20260506221324 | 85 | 127 | 4.0 | 7.0 | 0.00 | 0.00 | 0.00 | 57 | 1016.7 |
| 20260506220824 | 85 | 115 | 3.0 | 6.0 | 0.00 | 0.00 | 0.00 | 57 | 1016.6 |
| 20260506220342 | 85 | 62 | 3.0 | 8.0 | 0.00 | 0.00 | 0.00 | 59 | 1016.6 |
| 20260506215825 | 85 | 150 | 3.0 | 8.0 | 0.00 | 0.00 | 0.00 | 58 | 1016.7 |
| 20260506215330 | 85 | 137 | 4.0 | 9.0 | 0.00 | 0.00 | 0.00 | 57 | 1016.6 |
| 20260506214851 | 85 | 87 | 6.0 | 9.0 | 0.00 | 0.00 | 0.00 | 56 | 1016.6 |
| 20260506214320 | 85 | 110 | 3.0 | 7.0 | 0.00 | 0.00 | 0.00 | 57 | 1016.6 |
| 20260506213843 | 85 | 83 | 4.0 | 7.0 | 0.00 | 0.00 | 0.00 | 57 | 1016.6 |
| 20260506213335 | 85 | 30 | 3.0 | 8.0 | 0.00 | 0.00 | 0.00 | 57 | 1016.6 |
| 20260506212836 | 85 | 146 | 4.0 | 8.0 | 0.00 | 0.00 | 0.00 | 57 | 1016.5 |
| 20260506212328 | 85 | 112 | 4.0 | 8.0 | 0.00 | 0.00 | 0.00 | 57 | 1016.6 |
| 20260506211904 | 85 | 125 | 4.0 | 7.0 | 0.00 | 0.00 | 0.00 | 60 | 1016.6 |
| 20260506211327 | 85 | 130 | 4.0 | 9.0 | 0.00 | 0.00 | 0.00 | 60 | 1016.6 |
| 20260506210842 | 85 | 53 | 6.0 | 9.0 | 0.00 | 0.00 | 0.00 | 59 | 1016.6 |
| 20260506210327 | 85 | 46 | 3.0 | 9.0 | 0.00 | 0.00 | 0.00 | 60 | 1016.5 |
| 20260506205847 | 85 | 118 | 4.0 | 8.0 | 0.00 | 0.00 | 0.00 | 59 | 1016.5 |
| 20260506205342 | 85 | 110 | 5.0 | 8.0 | 0.00 | 0.00 | 0.00 | 60 | 1016.6 |
| 20260506204846 | 86 | 51 | 4.0 | 7.0 | 0.00 | 0.00 | 0.00 | 58 | 1016.6 |
| 20260506204327 | 86 | 49 | 2.0 | 7.0 | 0.00 | 0.00 | 0.00 | 58 | 1016.6 |
| 20260506203822 | 85 | 116 | 4.0 | 7.0 | 0.00 | 0.00 | 0.00 | 61 | 1016.6 |
| 20260506203324 | 86 | 115 | 3.0 | 8.0 | 0.00 | 0.00 | 0.00 | 61 | 1016.6 |
| 20260506202846 | 86 | 83 | 4.0 | 8.0 | 0.00 | 0.00 | 0.00 | 60 | 1016.6 |
| 20260506202342 | 86 | 144 | 4.0 | 8.0 | 0.00 | 0.00 | 0.00 | 59 | 1016.7 |
| 20260506201839 | 86 | 345 | 3.0 | 9.0 | 0.00 | 0.00 | 0.00 | 59 | 1016.8 |
| 20260506201329 | 86 | 142 | 3.0 | 9.0 | 0.00 | 0.00 | 0.00 | 58 | 1016.8 |
| 20260506200841 | 86 | 90 | 5.0 | 8.0 | 0.00 | 0.00 | 0.00 | 57 | 1016.8 |
| 20260506200321 | 86 | 108 | 5.0 | 9.0 | 0.00 | 0.00 | 0.00 | 63 | 1016.9 |
| 20260506195845 | 86 | 122 | 6.0 | 9.0 | 0.00 | 0.00 | 0.00 | 63 | 1016.9 |
| 20260506195320 | 86 | 111 | 5.0 | 8.0 | 0.00 | 0.00 | 0.00 | 62 | 1016.9 |
| 20260506194831 | 86 | 113 | 2.0 | 8.0 | 0.00 | 0.00 | 0.00 | 65 | 1016.9 |
| 20260506194324 | 86 | 63 | 4.0 | 10.0 | 0.00 | 0.00 | 0.00 | 60 | 1016.9 |
| 20260506193846 | 86 | 136 | 4.0 | 10.0 | 0.00 | 0.00 | 0.00 | 62 | 1017.0 |
| 20260506193342 | 86 | 132 | 5.0 | 9.0 | 0.00 | 0.00 | 0.00 | 62 | 1017.0 |
| 20260506192835 | 86 | 117 | 4.0 | 9.0 | 0.00 | 0.00 | 0.00 | 62 | 1017.1 |
| 20260506192330 | 86 | 123 | 4.0 | 8.0 | 0.00 | 0.00 | 0.00 | 64 | 1017.2 |
| 20260506191831 | 86 | 155 | 6.0 | 8.0 | 0.00 | 0.00 | 0.00 | 63 | 1017.1 |
| 20260506191323 | 87 | 147 | 4.0 | 9.0 | 0.00 | 0.00 | 0.00 | 66 | 1017.2 |
| 20260506190836 | 87 | 137 | 4.0 | 8.0 | 0.00 | 0.00 | 0.00 | 62 | 1017.2 |
| 20260506190330 | 86 | 60 | 3.0 | 6.0 | 0.00 | 0.00 | 0.00 | 62 | 1017.3 |
| 20260506185824 | 87 | 168 | 2.0 | 7.0 | 0.00 | 0.00 | 0.00 | 61 | 1017.3 |
| 20260506185334 | 86 | 140 | 2.0 | 7.0 | 0.00 | 0.00 | 0.00 | 62 | 1017.4 |
| 20260506184829 | 86 | 121 | 3.0 | 8.0 | 0.00 | 0.00 | 0.00 | 62 | 1017.3 |
| 20260506184344 | 87 | 150 | 5.0 | 8.0 | 0.00 | 0.00 | 0.00 | 62 | 1017.4 |
| 20260506183830 | 87 | 10 | 4.0 | 8.0 | 0.00 | 0.00 | 0.00 | 60 | 1017.4 |
| 20260506183325 | 87 | 128 | 5.0 | 8.0 | 0.00 | 0.00 | 0.00 | 59 | 1017.5 |
| 20260506182835 | 87 | 136 | 0.0 | 7.0 | 0.00 | 0.00 | 0.00 | 62 | 1017.6 |
| 20260506182329 | 87 | 110 | 3.0 | 7.0 | 0.00 | 0.00 | 0.00 | 62 | 1017.6 |
| 20260506181842 | 87 | 122 | 3.0 | 6.0 | 0.00 | 0.00 | 0.00 | 61 | 1017.6 |
| 20260506181332 | 87 | 65 | 2.0 | 6.0 | 0.00 | 0.00 | 0.00 | 62 | 1017.6 |
| 20260506180825 | 87 | 130 | 4.0 | 7.0 | 0.00 | 0.00 | 0.00 | 62 | 1017.6 |
| 20260506180334 | 87 | 139 | 2.0 | 7.0 | 0.00 | 0.00 | 0.00 | 62 | 1017.6 |
| 20260506175826 | 87 | 40 | 3.0 | 6.0 | 0.00 | 0.00 | 0.00 | 65 | 1017.7 |
| 20260506175341 | 86 | 120 | 4.0 | 11.0 | 0.00 | 0.00 | 0.00 | 65 | 1017.7 |
| 20260506174834 | 87 | 117 | 5.0 | 11.0 | 0.00 | 0.00 | 0.00 | 64 | 1017.8 |
| 20260506174328 | 86 | 117 | 3.0 | 10.0 | 0.00 | 0.00 | 0.00 | 64 | 1017.8 |
| 20260506173820 | 86 | 106 | 4.0 | 10.0 | 0.00 | 0.00 | 0.00 | 65 | 1017.9 |
| 20260506173328 | 86 | 60 | 3.0 | 7.0 | 0.00 | 0.00 | 0.00 | 66 | 1017.9 |
| 20260506172840 | 87 | 136 | 2.0 | 8.0 | 0.00 | 0.00 | 0.00 | 66 | 1017.9 |
| 20260506172319 | 86 | 166 | 3.0 | 9.0 | 0.00 | 0.00 | 0.00 | 64 | 1018.0 |
| 20260506171821 | 87 | 129 | 5.0 | 9.0 | 0.00 | 0.00 | 0.00 | 64 | 1017.9 |
| 20260506171332 | 86 | 68 | 4.0 | 8.0 | 0.00 | 0.00 | 0.00 | 63 | 1017.8 |
| 20260506170825 | 86 | 129 | 4.0 | 6.0 | 0.00 | 0.00 | 0.00 | 65 | 1017.9 |
| 20260506170320 | 86 | 60 | 1.0 | 7.0 | 0.00 | 0.00 | 0.00 | 67 | 1017.9 |
| 20260506165834 | 86 | 120 | 4.0 | 7.0 | 0.00 | 0.00 | 0.00 | 66 | 1018.0 |
| 20260506165328 | 86 | 86 | 3.0 | 8.0 | 0.00 | 0.00 | 0.00 | 67 | 1018.1 |
| 20260506164821 | 86 | 138 | 2.0 | 8.0 | 0.00 | 0.00 | 0.00 | 69 | 1018.2 |
| 20260506164331 | 86 | 111 | 1.0 | 7.0 | 0.00 | 0.00 | 0.00 | 70 | 1018.2 |
| 20260506163824 | 86 | 38 | 2.0 | 7.0 | 0.00 | 0.00 | 0.00 | 70 | 1018.3 |
| 20260506163336 | 85 | 39 | 2.0 | 6.0 | 0.00 | 0.00 | 0.00 | 70 | 1018.3 |
| 20260506162850 | 85 | 71 | 3.0 | 8.0 | 0.00 | 0.00 | 0.00 | 68 | 1018.3 |
| 20260506162342 | 85 | 134 | 4.0 | 7.0 | 0.00 | 0.00 | 0.00 | 69 | 1018.3 |
| 20260506161823 | 86 | 77 | 4.0 | 7.0 | 0.00 | 0.00 | 0.00 | 71 | 1018.4 |
| 20260506161333 | 85 | 93 | 0.0 | 5.0 | 0.00 | 0.00 | 0.00 | 72 | 1018.4 |
| 20260506160834 | 85 | 140 | 2.0 | 7.0 | 0.00 | 0.00 | 0.00 | 72 | 1018.5 |
| 20260506160324 | 85 | 70 | 4.0 | 7.0 | 0.00 | 0.00 | 0.00 | 72 | 1018.4 |
| 20260506155837 | 84 | 122 | 2.0 | 8.0 | 0.00 | 0.00 | 0.00 | 74 | 1018.5 |
| 20260506155327 | 85 | 46 | 4.0 | 8.0 | 0.00 | 0.00 | 0.00 | 72 | 1018.7 |
| 20260506154818 | 84 | 115 | 3.0 | 7.0 | 0.00 | 0.00 | 0.00 | 74 | 1018.5 |
| 20260506154351 | 85 | 66 | 2.0 | 7.0 | 0.00 | 0.00 | 0.00 | 73 | 1018.4 |
| 20260506153820 | 84 | 77 | 2.0 | 7.0 | 0.00 | 0.00 | 0.00 | 74 | 1018.3 |
| 20260506153335 | 84 | 77 | 4.0 | 6.0 | 0.00 | 0.00 | 0.00 | 74 | 1018.4 |
| 20260506152835 | 84 | 141 | 0.0 | 7.0 | 0.00 | 0.00 | 0.00 | 74 | 1018.3 |
| 20260506152331 | 84 | 120 | 3.0 | 7.0 | 0.00 | 0.00 | 0.00 | 76 | 1018.3 |
| 20260506151841 | 84 | 148 | 2.0 | 8.0 | 0.00 | 0.00 | 0.00 | 75 | 1018.4 |
| 20260506151347 | 84 | 87 | 4.0 | 8.0 | 0.00 | 0.00 | 0.00 | 75 | 1018.5 |
| 20260506150855 | 84 | 146 | 1.0 | 8.0 | 0.00 | 0.00 | 0.00 | 76 | 1018.5 |
| 20260506150327 | 84 | 119 | 3.0 | 6.0 | 0.00 | 0.00 | 0.00 | 77 | 1018.4 |
| 20260506145848 | 83 | 131 | 3.0 | 7.0 | 0.00 | 0.00 | 0.00 | 76 | 1018.3 |
| 20260506145339 | 83 | 127 | 4.0 | 7.0 | 0.00 | 0.00 | 0.00 | 77 | 1018.3 |
| 20260506144832 | 83 | 136 | 3.0 | 5.0 | 0.00 | 0.00 | 0.00 | 77 | 1018.3 |
| 20260506144324 | 83 | 120 | 2.0 | 6.0 | 0.00 | 0.00 | 0.00 | 78 | 1018.3 |
| 20260506143833 | 83 | 108 | 2.0 | 7.0 | 0.00 | 0.00 | 0.00 | 77 | 1018.2 |
| 20260506143409 | 83 | 135 | 2.0 | 7.0 | 0.00 | 0.00 | 0.00 | 77 | 1018.2 |
| 20260506142841 | 83 | 124 | 3.0 | 6.0 | 0.00 | 0.00 | 0.00 | 78 | 1018.1 |
| 20260506142335 | 83 | 105 | 4.0 | 7.0 | 0.00 | 0.00 | 0.00 | 78 | 1018.1 |
| 20260506141833 | 82 | 98 | 4.0 | 7.0 | 0.00 | 0.00 | 0.00 | 78 | 1018.0 |
| 20260506141346 | 82 | 134 | 4.0 | 7.0 | 0.00 | 0.00 | 0.00 | 79 | 1018.0 |
| 20260506140824 | 82 | 133 | 3.0 | 6.0 | 0.00 | 0.00 | 0.00 | 78 | 1018.0 |
| 20260506140345 | 82 | 84 | 3.0 | 7.0 | 0.00 | 0.00 | 0.00 | 79 | 1018.0 |
| 20260506135836 | 82 | 66 | 3.0 | 6.0 | 0.00 | 0.00 | 0.00 | 79 | 1018.0 |
| 20260506135328 | 82 | 135 | 3.0 | 5.0 | 0.00 | 0.00 | 0.00 | 79 | 1018.0 |
| 20260506134909 | 82 | 51 | 3.0 | 7.0 | 0.00 | 0.00 | 0.00 | 79 | 1018.0 |
| 20260506134406 | 81 | 100 | 2.0 | 7.0 | 0.00 | 0.00 | 0.00 | 80 | 1017.9 |
| 20260506133859 | 81 | 119 | 3.0 | 7.0 | 0.00 | 0.00 | 0.00 | 79 | 1017.9 |
| 20260506133321 | 81 | 61 | 3.0 | 6.0 | 0.00 | 0.00 | 0.00 | 80 | 1017.8 |
| 20260506132833 | 81 | 115 | 4.0 | 9.0 | 0.00 | 0.00 | 0.00 | 80 | 1017.8 |
| 20260506132353 | 81 | 136 | 4.0 | 9.0 | 0.00 | 0.00 | 0.00 | 80 | 1017.9 |
| 20260506131846 | 81 | 124 | 2.0 | 8.0 | 0.00 | 0.00 | 0.00 | 80 | 1018.0 |
| 20260506131338 | 81 | 75 | 3.0 | 6.0 | 0.00 | 0.00 | 0.00 | 80 | 1017.7 |
| 20260506130822 | 81 | 68 | 3.0 | 6.0 | 0.00 | 0.00 | 0.00 | 80 | 1017.6 |
| 20260506130351 | 80 | 123 | 2.0 | 6.0 | 0.00 | 0.00 | 0.00 | 81 | 1017.5 |
| 20260506125822 | 80 | 136 | 2.0 | 7.0 | 0.00 | 0.00 | 0.00 | 81 | 1017.6 |
| 20260506125321 | 80 | 139 | 2.0 | 7.0 | 0.00 | 0.00 | 0.00 | 81 | 1017.4 |
| 20260506124831 | 79 | 115 | 2.0 | 7.0 | 0.00 | 0.00 | 0.00 | 82 | 1017.5 |
| 20260506124357 | 79 | 106 | 3.0 | 7.0 | 0.00 | 0.00 | 0.00 | 82 | 1017.5 |
| 20260506123830 | 78 | 66 | 3.0 | 5.0 | 0.00 | 0.00 | 0.00 | 82 | 1017.5 |
| 20260506123321 | 78 | 141 | 2.0 | 7.0 | 0.00 | 0.00 | 0.00 | 82 | 1017.6 |
| 20260506122842 | 78 | 95 | 2.0 | 7.0 | 0.00 | 0.00 | 0.00 | 83 | 1017.5 |
| 20260506122352 | 78 | 143 | 1.0 | 5.0 | 0.00 | 0.00 | 0.00 | 83 | 1017.6 |
| 20260506121830 | 78 | 110 | 1.0 | 3.0 | 0.00 | 0.00 | 0.00 | 84 | 1017.5 |
| 20260506121346 | 78 | 109 | 0.0 | 2.0 | 0.00 | 0.00 | 0.00 | 84 | 1017.5 |
| 20260506120831 | 78 | 132 | 1.0 | 2.0 | 0.00 | 0.00 | 0.00 | 84 | 1017.5 |
| 20260506120342 | 78 | 94 | 0.0 | 1.0 | 0.00 | 0.00 | 0.00 | 84 | 1017.4 |
| 20260506115857 | 77 | 128 | 1.0 | 2.0 | 0.00 | 0.00 | 0.00 | 84 | 1017.6 |
| 20260506115330 | 77 | 77 | 0.0 | 2.0 | 0.00 | 0.00 | 0.00 | 84 | 1017.5 |
| 20260506114821 | 77 | 96 | 0.0 | 1.0 | 0.00 | 0.00 | 0.00 | 85 | 1017.5 |
| 20260506114334 | 77 | 134 | 0.0 | 1.0 | 0.00 | 0.00 | 0.00 | 86 | 1017.4 |
| 20260506113844 | 77 | 56 | 0.0 | 1.0 | 0.00 | 0.00 | 0.00 | 87 | 1017.3 |
| 20260506113334 | 76 | 43 | 0.0 | 0.0 | 0.00 | 0.00 | 0.00 | 88 | 1017.1 |
| 20260506112827 | 76 | 42 | 0.0 | 0.0 | 0.00 | 0.00 | 0.00 | 89 | 1017.1 |
| 20260506112348 | 75 | 42 | 0.0 | 0.0 | 0.00 | 0.00 | 0.00 | 90 | 1017.1 |
| 20260506111832 | 74 | 42 | 0.0 | 0.0 | 0.00 | 0.00 | 0.00 | 90 | 1017.1 |
| 20260506111323 | 74 | 42 | 0.0 | 0.0 | 0.00 | 0.00 | 0.00 | 90 | 1017.0 |
| 20260506110833 | 73 | 42 | 0.0 | 0.0 | 0.00 | 0.00 | 0.00 | 90 | 1016.7 |
| 20260506110326 | 73 | 42 | 0.0 | 0.0 | 0.00 | 0.00 | 0.00 | 90 | 1016.6 |
| 20260506105828 | 73 | 42 | 0.0 | 0.0 | 0.00 | 0.00 | 0.00 | 90 | 1016.6 |
| 20260506105328 | 72 | 42 | 0.0 | 0.0 | 0.00 | 0.00 | 0.00 | 90 | 1016.6 |
| 20260506104843 | 72 | 42 | 0.0 | 0.0 | 0.00 | 0.00 | 0.00 | 90 | 1016.6 |
| 20260506104351 | 73 | 42 | 0.0 | 0.0 | 0.00 | 0.00 | 0.00 | 90 | 1016.4 |
| 20260506103853 | 72 | 42 | 0.0 | 0.0 | 0.00 | 0.00 | 0.00 | 90 | 1016.4 |
| 20260506103323 | 72 | 42 | 0.0 | 0.0 | 0.00 | 0.00 | 0.00 | 90 | 1016.5 |
| 20260506102844 | 73 | 42 | 0.0 | 0.0 | 0.00 | 0.00 | 0.00 | 90 | 1016.5 |
| 20260506102337 | 73 | 42 | 0.0 | 0.0 | 0.00 | 0.00 | 0.00 | 89 | 1016.6 |
| 20260506101835 | 73 | 58 | 0.0 | 0.0 | 0.00 | 0.00 | 0.00 | 89 | 1016.6 |
| 20260506101329 | 72 | 58 | 0.0 | 0.0 | 0.00 | 0.00 | 0.00 | 89 | 1016.5 |
| 20260506100821 | 73 | 58 | 0.0 | 0.0 | 0.00 | 0.00 | 0.00 | 89 | 1016.5 |
| 20260506100334 | 73 | 58 | 0.0 | 0.0 | 0.00 | 0.00 | 0.00 | 89 | 1016.5 |
| 20260506095845 | 73 | 58 | 0.0 | 0.0 | 0.00 | 0.00 | 0.00 | 89 | 1016.4 |
| 20260506095332 | 73 | 58 | 0.0 | 0.0 | 0.00 | 0.00 | 0.00 | 88 | 1016.4 |
| 20260506094918 | 73 | 58 | 0.0 | 0.0 | 0.00 | 0.00 | 0.00 | 88 | 1016.3 |
| 20260506094404 | 73 | 58 | 0.0 | 0.0 | 0.00 | 0.00 | 0.00 | 88 | 1016.3 |
| 20260506093829 | 73 | 58 | 0.0 | 0.0 | 0.00 | 0.00 | 0.00 | 88 | 1016.3 |
| 20260506093343 | 74 | 58 | 0.0 | 0.0 | 0.00 | 0.00 | 0.00 | 88 | 1016.2 |
| 20260506092827 | 74 | 58 | 0.0 | 0.0 | 0.00 | 0.00 | 0.00 | 89 | 1016.1 |
| 20260506092326 | 73 | 58 | 0.0 | 0.0 | 0.00 | 0.00 | 0.00 | 88 | 1016.2 |
| 20260506091838 | 73 | 58 | 0.0 | 0.0 | 0.00 | 0.00 | 0.00 | 88 | 1016.2 |
| 20260506091330 | 73 | 58 | 0.0 | 0.0 | 0.00 | 0.00 | 0.00 | 88 | 1016.2 |
| 20260506090845 | 74 | 58 | 0.0 | 0.0 | 0.00 | 0.00 | 0.00 | 88 | 1016.2 |
| 20260506090353 | 74 | 58 | 0.0 | 0.0 | 0.00 | 0.00 | 0.00 | 88 | 1016.1 |
| 20260506085821 | 74 | 58 | 0.0 | 0.0 | 0.00 | 0.00 | 0.00 | 87 | 1015.9 |
| 20260506085343 | 74 | 58 | 0.0 | 0.0 | 0.00 | 0.00 | 0.00 | 87 | 1016.0 |
| 20260506084855 | 74 | 58 | 0.0 | 0.0 | 0.00 | 0.00 | 0.00 | 87 | 1016.0 |
| 20260506084325 | 74 | 58 | 0.0 | 0.0 | 0.00 | 0.00 | 0.00 | 87 | 1016.0 |
| 20260506083835 | 74 | 58 | 0.0 | 0.0 | 0.00 | 0.00 | 0.00 | 87 | 1016.1 |
| 20260506083346 | 74 | 58 | 0.0 | 0.0 | 0.00 | 0.00 | 0.00 | 86 | 1016.1 |
| 20260506082839 | 75 | 58 | 0.0 | 0.0 | 0.00 | 0.00 | 0.00 | 86 | 1016.2 |
| 20260506082332 | 75 | 58 | 0.0 | 0.0 | 0.00 | 0.00 | 0.00 | 86 | 1016.3 |
| 20260506081853 | 75 | 58 | 0.0 | 0.0 | 0.00 | 0.00 | 0.00 | 86 | 1016.2 |
| 20260506081326 | 75 | 58 | 0.0 | 0.0 | 0.00 | 0.00 | 0.00 | 86 | 1016.3 |
| 20260506080848 | 75 | 58 | 0.0 | 0.0 | 0.00 | 0.00 | 0.00 | 86 | 1016.3 |
| 20260506080342 | 75 | 58 | 0.0 | 0.0 | 0.00 | 0.00 | 0.00 | 86 | 1016.2 |
| 20260506073345 | 76 | 124 | 0.0 | 1.0 | 0.00 | 0.00 | 0.00 | 84 | 1016.0 |
| 20260506072852 | 76 | 125 | 0.0 | 2.0 | 0.00 | 0.00 | 0.00 | 84 | 1016.0 |
| 20260506072326 | 76 | 125 | 1.0 | 2.0 | 0.00 | 0.00 | 0.00 | 84 | 1016.1 |
| 20260506071831 | 76 | 133 | 1.0 | 2.0 | 0.00 | 0.00 | 0.00 | 84 | 1016.1 |
| 20260506071343 | 77 | 77 | 0.0 | 2.0 | 0.00 | 0.00 | 0.00 | 83 | 1016.1 |
| 20260506070904 | 77 | 131 | 0.0 | 2.0 | 0.00 | 0.00 | 0.00 | 83 | 1016.1 |
| 20260506070331 | 77 | 129 | 0.0 | 2.0 | 0.00 | 0.00 | 0.00 | 83 | 1016.0 |
| 20260506062352 | 77 | 119 | 1.0 | 4.0 | 0.00 | 0.00 | 0.00 | 83 | 1016.3 |
| 20260506061835 | 77 | 137 | 2.0 | 4.0 | 0.00 | 0.00 | 0.00 | 84 | 1016.4 |
| 20260506061337 | 77 | 64 | 1.0 | 4.0 | 0.00 | 0.00 | 0.00 | 84 | 1016.4 |
| 20260506060828 | 77 | 110 | 0.0 | 0.0 | 0.00 | 0.00 | 0.00 | 84 | 1016.3 |
| 20260506060346 | 77 | 116 | 0.0 | 0.0 | 0.00 | 0.00 | 0.00 | 84 | 1016.4 |
| 20260506051343 | 76 | 122 | 0.0 | 0.0 | 0.00 | 0.20 | 0.00 | 83 | 1016.7 |
| 20260506050901 | 76 | 125 | 0.0 | 0.0 | 0.00 | 0.20 | 0.00 | 83 | 1016.8 |
| 20260506050329 | 76 | 72 | 0.0 | 0.0 | 0.00 | 0.20 | 0.00 | 83 | 1016.8 |
| 20260506044821 | 77 | 71 | 0.0 | 1.0 | 0.00 | 0.23 | 0.00 | 83 | 1016.8 |
| 20260506044322 | 77 | 131 | 0.0 | 2.0 | 0.00 | 0.23 | 0.00 | 83 | 1016.9 |
| 20260506043836 | 77 | 110 | 0.0 | 2.0 | 0.00 | 0.23 | 0.00 | 83 | 1016.9 |
| 20260506043337 | 77 | 91 | 0.0 | 3.0 | 0.00 | 0.23 | 0.00 | 83 | 1016.9 |
| 20260506042832 | 77 | 96 | 0.0 | 3.0 | 0.00 | 0.23 | 0.00 | 83 | 1017.0 |
| 20260506042406 | 77 | 57 | 1.0 | 3.0 | 0.00 | 0.23 | 0.00 | 83 | 1017.0 |
| 20260506041827 | 77 | 90 | 1.0 | 3.0 | 0.00 | 0.23 | 0.00 | 83 | 1017.0 |
| 20260506041339 | 77 | 77 | 1.0 | 2.0 | 0.00 | 0.23 | 0.00 | 83 | 1017.2 |
| 20260506040828 | 77 | 124 | 0.0 | 2.0 | 0.00 | 0.23 | 0.00 | 83 | 1017.2 |
| 20260506040322 | 77 | 124 | 0.0 | 3.0 | 0.00 | 0.23 | 0.00 | 83 | 1017.3 |
| 20260506035835 | 77 | 75 | 1.0 | 3.0 | 0.00 | 0.23 | 0.00 | 83 | 1017.2 |
| 20260506035330 | 77 | 65 | 1.0 | 3.0 | 0.00 | 0.23 | 0.23 | 83 | 1017.2 |
| 20260506034823 | 77 | 91 | 0.0 | 2.0 | 0.00 | 0.23 | 0.23 | 83 | 1017.2 |
| 20260506034332 | 77 | 77 | 1.0 | 2.0 | 0.00 | 0.23 | 0.23 | 82 | 1017.2 |
| 20260506033847 | 77 | 75 | 1.0 | 3.0 | 0.00 | 0.23 | 0.23 | 82 | 1017.1 |
| 20260506033320 | 77 | 66 | 2.0 | 3.0 | 0.00 | 0.23 | 0.23 | 82 | 1017.1 |
| 20260506032843 | 77 | 68 | 0.0 | 4.0 | 0.00 | 0.23 | 0.23 | 82 | 1017.1 |
| 20260506032336 | 77 | 66 | 2.0 | 4.0 | 0.00 | 0.23 | 0.23 | 82 | 1017.2 |
| 20260506031857 | 77 | 125 | 1.0 | 4.0 | 0.00 | 0.23 | 0.23 | 82 | 1017.1 |
| 20260506031328 | 77 | 35 | 0.0 | 4.0 | 0.00 | 0.23 | 0.23 | 82 | 1017.1 |
| 20260506030821 | 77 | 72 | 2.0 | 4.0 | 0.00 | 0.23 | 0.23 | 82 | 1017.0 |
| 20260506030321 | 77 | 37 | 1.0 | 3.0 | 0.00 | 0.23 | 0.23 | 82 | 1016.9 |
| 20260506025835 | 77 | 49 | 1.0 | 5.0 | 0.00 | 0.23 | 0.23 | 82 | 1017.0 |
| 20260506025337 | 77 | 73 | 3.0 | 7.0 | 0.00 | 0.23 | 0.23 | 82 | 1017.0 |
| 20260506024829 | 77 | 21 | 2.0 | 7.0 | 0.00 | 0.23 | 0.23 | 82 | 1017.0 |
| 20260506024322 | 77 | 51 | 2.0 | 6.0 | 0.00 | 0.23 | 0.23 | 82 | 1017.0 |
| 20260506023836 | 77 | 65 | 2.0 | 7.0 | 0.00 | 0.23 | 0.23 | 82 | 1016.9 |
| 20260506023329 | 77 | 27 | 3.0 | 7.0 | 0.00 | 0.23 | 0.23 | 82 | 1016.9 |
| 20260506022821 | 77 | 89 | 2.0 | 6.0 | 0.00 | 0.23 | 0.23 | 82 | 1016.8 |
| 20260506022349 | 77 | 70 | 2.0 | 6.0 | 0.00 | 0.23 | 0.23 | 82 | 1016.7 |
| 20260506021844 | 77 | 59 | 3.0 | 5.0 | 0.00 | 0.23 | 0.23 | 82 | 1016.7 |
| 20260506021330 | 77 | 114 | 2.0 | 5.0 | 0.00 | 0.23 | 0.23 | 81 | 1016.6 |
| 20260506020820 | 77 | 114 | 2.0 | 8.0 | 0.00 | 0.23 | 0.23 | 81 | 1016.6 |
| 20260506020328 | 77 | 53 | 4.0 | 8.0 | 0.00 | 0.23 | 0.23 | 81 | 1016.6 |
| 20260506015821 | 77 | 57 | 3.0 | 7.0 | 0.00 | 0.23 | 0.23 | 81 | 1016.5 |
| 20260506015320 | 77 | 102 | 3.0 | 6.0 | 0.00 | 0.23 | 0.23 | 81 | 1016.6 |